Regional Weather Roundup
Issued by NWS State College, PA

Home | Current Version | Previous Version | Text Only | Print | Product List | Glossary Off
Versions: 1 2 3 4 5 6 7 8 9 10 11 12 13 14 15 16 17 18 19 20 21 22 23 24 25 26 27 28 29 30 31 32 33 34 35 36 37 38 39 40 41 42 43 44 45 46 47 48 49 50

000
ASUS41 KCTP 221610
RWRCTP

REGIONAL WEATHER ROUNDUP
NATIONAL WEATHER SERVICE STATE COLLEGE PA
1200 PM EDT SUN OCT 22 2017

Note: "fair" indicates few or no clouds below 12,000 feet with no
significant weather and/or obstructions to visibility.

* = STATION THAT DOES NOT REPORT PRECIPITATION /E.G. RAIN...SNOW...ETC/
    THUNDER OR FOG.

PAZ002>004-007>009-013>016-020>023-029>032-221700-
WESTERN PENNSYLVANIA

CITY           SKY/WX    TMP DP  RH WIND       PRES   REMARKS
ERIE           SUNNY     72  53  51 S12       30.25S
MEADVILLE      SUNNY     68  53  58 S8        30.29S
FRANKLIN*      SUNNY     67  53  61 S8        30.31S
NEW CASTLE     FAIR      71  53  52 VRB7      30.29S
BEAVER COUNTY  NOT AVBL
BUTLER*        MOSUNNY   69  53  56 S7        30.31S
PITTSBURGH INT PTSUNNY   69  52  54 S9        30.29F
PITTSBURGH     CLOUDY    69  50  50 S8        30.30S
INDIANA*       SUNNY     70  54  56 S7        30.33F
LATROBE        SUNNY     72  54  53 SW3       30.32S
WASHINGTON CO* SUNNY     71  53  52 S12       30.32F
$$

PAZ004>006-010>012-017>019-024>028-033>037-041-042-045-046-049>053-221700-
CENTRAL PENNSYLVANIA

CITY           SKY/WX    TMP DP  RH WIND       PRES   REMARKS
BRADFORD       MOSUNNY   68  50  52 S8        30.32F
DUBOIS         SUNNY     69  49  48 VRB7      30.32S
CLEARFIELD     SUNNY     68  50  52 CALM      30.34F
JOHNSTOWN      SUNNY     66  51  58 SE9       30.34F
ALTOONA        SUNNY     69  51  52 SW7       30.36F
STATE COLLEGE  SUNNY     63  50  63 CALM      30.36F
WILLIAMSPORT   SUNNY     68  48  48 E7        30.35F
SELINSGROVE    SUNNY     64  51  62 CALM      30.38F
FT INDIANTOWN  SUNNY     67  47  49 CALM      30.38F
CAPITAL CITY   SUNNY     68  49  50 E6        30.38F
HARRISBURG     MOSUNNY   69  50  50 SE5       30.37F
YORK           SUNNY     70  53  54 CALM      30.37F
$$

PAZ038>040-043-044-047-048-054-055-060>062-067>071-221700-
EASTERN PENNSYLVANIA

CITY           SKY/WX    TMP DP  RH WIND       PRES   REMARKS
SCRANTON       SUNNY     68  47  46 NW5       30.38F
MOUNT POCONO   SUNNY     67  41  38 S13       30.41S
ALLENTOWN      SUNNY     69  49  48 CALM      30.40F
QUAKERTOWN*    SUNNY     72  48  43 CALM      30.41S
READING        SUNNY     68  53  58 CALM      30.38F
LANCASTER      SUNNY     68  51  54 S6        30.38F
COATESVILLE    SUNNY     68  48  49 S6        30.41F
POTTSTOWN      SUNNY     67  47  48 VRB5      30.41F
BLUE BELL      SUNNY     70  46  43 SE3       30.42F
DOYLESTOWN     SUNNY     69  41  36 S6        30.40S
WILLOW GROVE   NOT AVBL
NORTH PHILA    SUNNY     71  51  49 SE5       30.42F
PHILADELPHIA   PTSUNNY   70  54  56 CALM      30.41F
$$




USA.gov is the U.S. government's official web portal to all federal, state and local government web resources and services.